TimeCST,TemperatureF,Dew PointF,Humidity,Sea Level PressureIn,VisibilityMPH,Wind Direction,Wind SpeedMPH,Gust SpeedMPH,PrecipitationIn,Events,Conditions,WindDirDegrees,DateUTC
12:15 AM,32.0,32.0,100,29.58,4.0,Calm,Calm,-,0.01,Snow,Light Snow,0,2013-02-14 06:15:00
12:35 AM,32.0,32.0,100,29.58,7.0,NW,3.5,-,0.01,,Mostly Cloudy,310,2013-02-14 06:35:00
12:55 AM,32.0,32.0,100,29.57,5.0,Calm,Calm,-,0.01,,Mostly Cloudy,0,2013-02-14 06:55:00
1:15 AM,33.8,32.0,93,29.57,7.0,Calm,Calm,-,N/A,,Scattered Clouds,0,2013-02-14 07:15:00
1:35 AM,33.8,32.0,93,29.56,7.0,Calm,Calm,-,N/A,,Scattered Clouds,0,2013-02-14 07:35:00
1:55 AM,33.8,32.0,93,29.56,7.0,Calm,Calm,-,N/A,,Mostly Cloudy,0,2013-02-14 07:55:00
2:15 AM,32.0,32.0,100,29.55,4.0,South,3.5,-,N/A,,Mostly Cloudy,180,2013-02-14 08:15:00
2:35 AM,33.8,33.8,100,29.55,10.0,Calm,Calm,-,N/A,,Mostly Cloudy,0,2013-02-14 08:35:00
2:55 AM,33.8,32.0,93,29.55,10.0,Calm,Calm,-,N/A,,Mostly Cloudy,0,2013-02-14 08:55:00
3:15 AM,33.8,32.0,93,29.54,10.0,Calm,Calm,-,N/A,,Mostly Cloudy,0,2013-02-14 09:15:00
3:35 AM,32.0,32.0,100,29.54,5.0,NW,3.5,-,N/A,,Mostly Cloudy,320,2013-02-14 09:35:00
3:55 AM,32.0,32.0,100,29.55,3.0,Calm,Calm,-,N/A,,Overcast,0,2013-02-14 09:55:00
4:15 AM,32.0,32.0,100,29.55,3.0,Calm,Calm,-,N/A,,Mostly Cloudy,0,2013-02-14 10:15:00
4:35 AM,32.0,32.0,100,29.55,2.5,Calm,Calm,-,N/A,,Mostly Cloudy,0,2013-02-14 10:35:00
4:55 AM,32.0,32.0,100,29.56,3.0,Calm,Calm,-,N/A,,Mostly Cloudy,0,2013-02-14 10:55:00
5:15 AM,32.0,32.0,100,29.56,5.0,WSW,3.5,-,N/A,,Overcast,250,2013-02-14 11:15:00
5:35 AM,33.8,32.0,93,29.57,7.0,WNW,3.5,-,N/A,Rain,Light Rain,290,2013-02-14 11:35:00
5:55 AM,33.8,32.0,93,29.58,7.0,NW,9.2,16.1,N/A,Snow,Light Snow,310,2013-02-14 11:55:00
6:15 AM,32.0,32.0,100,29.60,4.0,NNW,11.5,19.6,N/A,Snow,Light Snow,330,2013-02-14 12:15:00
6:35 AM,32.0,32.0,100,29.62,4.0,NNW,9.2,-,N/A,Snow,Light Snow,330,2013-02-14 12:35:00
6:55 AM,32.0,32.0,100,29.63,5.0,NNW,12.7,20.7,N/A,Snow,Light Snow,340,2013-02-14 12:55:00
7:15 AM,32.0,32.0,100,29.65,4.0,NNW,18.4,24.2,N/A,Snow,Light Snow,340,2013-02-14 13:15:00
7:35 AM,32.0,30.2,93,29.68,1.5,NNW,16.1,21.9,N/A,Snow,Light Snow,330,2013-02-14 13:35:00
7:55 AM,30.2,30.2,100,29.70,1.5,NNW,13.8,24.2,N/A,Snow,Light Snow,330,2013-02-14 13:55:00
8:15 AM,32.0,30.2,93,29.71,3.0,NNW,9.2,-,N/A,Snow,Light Snow,330,2013-02-14 14:15:00
8:35 AM,30.2,28.4,93,29.71,5.0,NNW,12.7,16.1,N/A,Snow,Light Snow,340,2013-02-14 14:35:00
8:55 AM,32.0,26.6,80,29.73,10.0,NNW,11.5,-,N/A,,Scattered Clouds,330,2013-02-14 14:55:00
9:15 AM,32.0,26.6,80,29.74,10.0,NNW,13.8,25.3,N/A,,Scattered Clouds,330,2013-02-14 15:15:00
9:35 AM,32.0,26.6,80,29.75,10.0,NW,12.7,-,N/A,,Mostly Cloudy,320,2013-02-14 15:35:00
9:55 AM,32.0,26.6,80,29.76,10.0,NW,13.8,18.4,N/A,,Mostly Cloudy,310,2013-02-14 15:55:00
10:15 AM,32.0,26.6,80,29.77,10.0,NW,11.5,18.4,N/A,,Mostly Cloudy,310,2013-02-14 16:15:00
10:35 AM,32.0,24.8,75,29.77,10.0,NNW,11.5,17.3,N/A,,Scattered Clouds,330,2013-02-14 16:35:00
10:55 AM,32.0,24.8,75,29.77,10.0,NNW,12.7,17.3,N/A,,Scattered Clouds,330,2013-02-14 16:55:00
11:15 AM,32.0,24.8,75,29.78,10.0,NW,12.7,18.4,N/A,,Scattered Clouds,320,2013-02-14 17:15:00
11:35 AM,32.0,24.8,75,29.79,10.0,NW,11.5,18.4,N/A,,Mostly Cloudy,320,2013-02-14 17:35:00
11:55 AM,32.0,24.8,75,29.80,10.0,WNW,16.1,20.7,N/A,,Mostly Cloudy,300,2013-02-14 17:55:00
12:15 PM,32.0,24.8,75,29.80,10.0,WNW,15.0,25.3,N/A,,Scattered Clouds,300,2013-02-14 18:15:00
12:35 PM,32.0,23.0,69,29.81,10.0,NW,10.4,16.1,N/A,,Mostly Cloudy,310,2013-02-14 18:35:00
12:55 PM,32.0,23.0,69,29.81,10.0,WNW,15.0,18.4,N/A,,Mostly Cloudy,300,2013-02-14 18:55:00
1:15 PM,33.8,23.0,65,29.82,10.0,WNW,11.5,16.1,N/A,,Mostly Cloudy,300,2013-02-14 19:15:00
1:35 PM,33.8,21.2,60,29.82,10.0,NW,13.8,19.6,N/A,,Mostly Cloudy,310,2013-02-14 19:35:00
1:55 PM,33.8,21.2,60,29.82,10.0,WNW,12.7,19.6,N/A,,Overcast,300,2013-02-14 19:55:00
2:15 PM,33.8,21.2,60,29.83,10.0,WNW,10.4,19.6,N/A,,Mostly Cloudy,300,2013-02-14 20:15:00
2:35 PM,32.0,21.2,64,29.85,10.0,WNW,10.4,19.6,N/A,,Mostly Cloudy,300,2013-02-14 20:35:00
2:55 PM,32.0,21.2,64,29.85,10.0,NW,10.4,-,N/A,,Overcast,310,2013-02-14 20:55:00
3:15 PM,32.0,21.2,64,29.86,10.0,NNW,11.5,16.1,N/A,,Overcast,330,2013-02-14 21:15:00
3:35 PM,32.0,21.2,64,29.87,10.0,NW,11.5,-,N/A,,Overcast,310,2013-02-14 21:35:00
3:55 PM,32.0,19.4,60,29.88,10.0,WNW,10.4,18.4,N/A,,Overcast,290,2013-02-14 21:55:00
4:15 PM,32.0,19.4,60,29.89,10.0,WNW,10.4,-,N/A,,Mostly Cloudy,290,2013-02-14 22:15:00
4:35 PM,32.0,21.2,64,29.90,10.0,NW,8.1,-,N/A,,Mostly Cloudy,320,2013-02-14 22:35:00
4:55 PM,32.0,21.2,64,29.91,10.0,NW,6.9,-,N/A,,Mostly Cloudy,310,2013-02-14 22:55:00
5:15 PM,32.0,21.2,64,29.91,10.0,WNW,5.8,-,N/A,,Mostly Cloudy,300,2013-02-14 23:15:00
5:35 PM,32.0,21.2,64,29.92,10.0,WNW,6.9,-,N/A,,Mostly Cloudy,290,2013-02-14 23:35:00
5:55 PM,30.2,21.2,69,29.92,10.0,West,4.6,-,N/A,,Mostly Cloudy,280,2013-02-14 23:55:00
6:15 PM,32.0,21.2,64,29.93,10.0,WNW,5.8,-,N/A,,Scattered Clouds,290,2013-02-15 00:15:00
6:35 PM,30.2,21.2,69,29.94,10.0,WNW,9.2,-,N/A,,Mostly Cloudy,300,2013-02-15 00:35:00
6:55 PM,30.2,21.2,69,29.95,10.0,NW,13.8,20.7,N/A,,Scattered Clouds,310,2013-02-15 00:55:00
7:15 PM,30.2,21.2,69,29.96,10.0,NW,11.5,17.3,N/A,,Clear,320,2013-02-15 01:15:00
7:35 PM,30.2,19.4,64,29.96,10.0,NW,10.4,-,N/A,,Scattered Clouds,320,2013-02-15 01:35:00
7:55 PM,30.2,19.4,64,29.97,10.0,NW,12.7,18.4,N/A,,Mostly Cloudy,310,2013-02-15 01:55:00
8:15 PM,30.2,19.4,64,29.98,10.0,NW,8.1,-,N/A,,Mostly Cloudy,310,2013-02-15 02:15:00
8:35 PM,28.4,21.2,74,29.99,10.0,NW,12.7,20.7,N/A,Snow,Light Snow,320,2013-02-15 02:35:00
8:55 PM,28.4,19.4,69,30.01,10.0,NW,9.2,16.1,N/A,,Mostly Cloudy,320,2013-02-15 02:55:00
9:15 PM,28.4,17.6,64,30.02,10.0,NW,11.5,20.7,N/A,,Scattered Clouds,320,2013-02-15 03:15:00
9:35 PM,26.6,17.6,69,30.03,10.0,North,15.0,21.9,N/A,,Scattered Clouds,350,2013-02-15 03:35:00
9:55 PM,24.8,14.0,64,30.05,10.0,North,16.1,24.2,N/A,,Mostly Cloudy,350,2013-02-15 03:55:00
10:15 PM,23.0,12.2,63,30.06,10.0,NNW,12.7,21.9,N/A,,Mostly Cloudy,340,2013-02-15 04:15:00
10:35 PM,21.2,10.4,63,30.07,10.0,NNW,13.8,21.9,N/A,,Scattered Clouds,340,2013-02-15 04:35:00
10:55 PM,21.2,10.4,63,30.08,10.0,NNW,8.1,16.1,N/A,,Clear,330,2013-02-15 04:55:00
11:15 PM,19.4,8.6,63,30.09,10.0,NNW,8.1,-,N/A,,Clear,330,2013-02-15 05:15:00
11:35 PM,19.4,8.6,63,30.10,10.0,NW,5.8,-,N/A,,Clear,320,2013-02-15 05:35:00
11:55 PM,19.4,8.6,63,30.10,10.0,NNW,3.5,-,N/A,,Clear,330,2013-02-15 05:55:00